Hourly Data Report for September 25, 2017

All times are specified in Local Standard Time (LST). Add 1 hour to adjust for Daylight Saving Time where and when it is observed.

KUGAARUK CLIMATE
NUNAVUT

68°32'15.060" N
89°47'47.020" W
15.80 m
2303094
71407
NBB

Download Data

Hourly Data (September 2017)
Hourly Data Report for September 25, 2017
Temp Definition
°C
Dew Point Temp Definition
°C
Rel Hum Definition
%
Wind Dir Definition
10's deg

Wind Spd Definition
km/h
Visibility Definition
km
Stn Press Definition
kPa
Hmdx Definition


Wind Chill Definition


Weather Definition


TIME
00:00 -0.6 -3.6 81 30 10   101.70   -4 LegendNANA
01:00 -0.8 -3.9 79 30 15   101.70   -5 LegendNANA
02:00 -1.1 -3.3 85 32 13   101.70   -5 LegendNANA
03:00 -1.1 -3.5 84 33 16   101.70   -6 LegendNANA
04:00 -1.3 -3.5 85 35 10   101.70   -5 LegendNANA
05:00 -1.3 -3.6 84 33 4   101.67   -3 LegendNANA
06:00 -1.0 -4.0 80 30 7   101.66   -4 LegendNANA
07:00 -1.0 -3.5 83 31 9   101.65   -4 LegendNANA
08:00 -1.4 -3.7 84 32 17   101.64   -7 LegendNANA
09:00 -1.1 -5.4 73 29 16   101.65   -6 LegendNANA
10:00 -1.1 -4.6 77 30 13   101.63   -5 LegendNANA
11:00 -1.1 -4.4 78 29 15   101.62   -6 LegendNANA
12:00 -0.8 -4.3 78 29 17   101.61   -6 LegendNANA
13:00 -0.5 -4.4 75 29 14   101.60   -5 LegendNANA
14:00 -0.6 -4.6 75 28 16   101.62   -5 LegendNANA
15:00 -0.7 -4.5 76 30 12   101.62   -5 LegendNANA
16:00 -0.7 -4.1 78 30 12   101.63   -5 LegendNANA
17:00 -0.8 -4.6 75 30 10   101.64   -4 LegendNANA
18:00 -0.8 -4.5 76 30 8   101.62   -4 LegendNANA
19:00 -1.2 -4.5 78 29 5   101.61   -3 LegendNANA
20:00 -1.8 -4.5 82 31 5   101.61   -4 LegendNANA
21:00 -3.6 -5.3 89 17 2   101.60   -4 LegendNANA
22:00 -4.6 -6.1 89   0   101.60     LegendNANA
23:00 -4.8 -6.1 91 9 3   101.60   -6 LegendNANA

Notes on Data Quality.

Legend

  • E = Estimated
  • M = Missing
  • NA = Not Available
  • ‡ = Partner data that is not subject to review by the National Climate Archives
Date modified: